This is the latest recevied weather packets stored in our database for station/object WC4PEM-9. If no packets are shown the sender has not sent any weather packets the latest 10 day(s).
| Time | Temp. | Humidity | Pressure | Rain* | Wind** | Luminosity | Snow |
|---|---|---|---|---|---|---|---|
| 1787415151 | 32.22° C | 63% | 1016.7 hPa | 0 mm | - | - | - |
| 1787414851 | 32.22° C | 64% | 1016.9 hPa | 0 mm | - | - | - |
| 1787414551 | 32.22° C | 63% | 1017 hPa | 0 mm | - | - | - |
| 1787414251 | 32.22° C | 65% | 1017.2 hPa | 0 mm | - | - | - |
| 1787413951 | 31.67° C | 64% | 1017.1 hPa | 0 mm | - | - | - |
| 1787413651 | 31.67° C | 65% | 1017.2 hPa | 0 mm | - | - | - |
| 1787413462 | 31.67° C | 68% | 1017.1 hPa | 0 mm | - | - | - |
| 1787413351 | 31.67° C | 68% | 1017.1 hPa | 0 mm | - | - | - |
| 1787413051 | 31.11° C | 68% | 1017.2 hPa | 0 mm | - | - | - |
| 1787412751 | 31.11° C | 69% | 1017.3 hPa | 0 mm | - | - | - |
| 1787412451 | 31.11° C | 70% | 1017.4 hPa | 0 mm | - | - | - |
| 1787412151 | 30.56° C | 70% | 1017.4 hPa | 0 mm | - | - | - |
| 1787411992 | 30.56° C | 73% | 1017.6 hPa | 0 mm | - | - | - |
| 1787411851 | 30.56° C | 73% | 1017.6 hPa | 0 mm | - | - | - |
| 1787411551 | 30.56° C | 75% | 1017.5 hPa | 0 mm | - | - | - |
| 1787411349 | 30.56° C | 74% | 1017 hPa | 0 mm | - | - | - |
| 1787411251 | 30.56° C | 74% | 1017 hPa | 0 mm | - | - | - |
| 1787411070 | 30° C | 75% | 1017.3 hPa | 0 mm | - | - | - |
| 1787410951 | 30° C | 75% | 1017.3 hPa | 0 mm | - | - | - |
| 1787410651 | 30° C | 76% | 1017.4 hPa | 0 mm | - | - | - |
| 1787410351 | 30° C | 76% | 1017.3 hPa | 0 mm | - | - | - |
| 1787410051 | 30° C | 75% | 1017.4 hPa | 0 mm | - | - | - |
| 1787409751 | 30° C | 78% | 1017 hPa | 0 mm | - | - | - |
| 1787409451 | 29.44° C | 76% | 1017.2 hPa | 0 mm | - | - | - |
| 1787409260 | 30° C | 77% | 1017.3 hPa | 0 mm | - | - | - |
* Rain latest hour (hover to see other rain measurements)
** Current wind speed in m/s (hover to see current wind gust speed)